Probability
0 0 0 0 0 0 0 0 0 0 0 0 0 0 0 0 0 0 0 0 0 0 0 0 0 0 0 0 0 0 0 0 0 0 0 0 0 0 0 0 0 0 0
0 0 0 0 0 0 0 0 0 0 0 0 0 0 0 0 0 0 0 0 0 0 0 0 0 0 0 0 0 0 0 0 0 0 0 0 0 0 0 0 0 0 0
0 0 0 0 0 0 0 0 0 0 0 0 0 0 0 0 0 0 0 0 0 0 0 0 0 0 0 0 0 0 0 0 0 0 0 0 0 0 0 0 0 0 0
0 0 0 0 0 0 0 0 0 0 0 0 0 0 0 0 0 0 0 0 0 0 0 0 0 0 0 0 0 0 0 0 0 0 0 0 0 0 0 0 0 0 0
0 0 0 0 0 0 0 0 0 0 0 0 0 0 0 0 0 0 0 0 0 0 0 0 0 0 0 0 0 0 0 0 0 0 0 0 0 0 0 0 0 0 0
0 0 0 0 0 0 0 0 0 0 0 0 0 0 0 0 0 0 0 0 0 0 0 0 0 0 0 0 0 0 0 0 0 0 0 0 0 0 0 0 0 0 0
0 0 0 0 0 0 0 0 0 0 0 0 0 0 0 0 0 0 0 0 0 0 0 0 0 0 0 0 0 0 0 0 0 0 0 0 0 0 0 0 0 0 0
0 0 0 0 0 0 0 0 0 0 0 0 0 0 0 0 0 0 0 0 0 0 0 0 0 0 0 0 0 0 0 0 0 0 0 0 0 0 0 0 0 0 0
0 0 0 0 0 0 0 0 0 0 0 0 0 0 0 0 0 0 0 0 0 0 0 0 0 0 0 0 0 0 0 0 0 0 0 0 0 0 0 0 0 0 0
0 0 0 0 0 0 0 0 0 0 0 0 0 0 0 0 0 0 0 0 0 0 0 0 0 0 0 0 0 0 0 0 0 0 0 0 0 0 0 0 0 0 0
0 0 0 0 0 0 0 0 0 0 0 0 0 0 0 0 0 0 0 0 0 0 0 0 0 0 0 0 0 0 0 0 0 0 0 0 0 0 0 0 0 0 0
0 0 3 3 0 0 0 0 0 0 0 0 0 0 0 0 0 0 0 0 0 0 0 0 0 0 0 0 0 0 0 0 0 0 0 0 0 0 0 0 0 0 0
6 6 6 6 6 0 6 3 3 0 0 0 0 0 0 0 0 0 0 0 0 0 0 0 0 0 0 0 0 0 0 0 0 0 0 0 0 0 0 0 0 0 0
6 6 6 6 6 3 3 3 3 0 0 0 0 0 0 0 0 0 0 0 0 0 0 0 0 0 0 0 0 0 0 0 0 0 0 0 0 0 0 0 0 0 0
3 6 6 6 3 3 3 3 3 0 0 0 0 0 0 0 0 0 0 0 0 0 0 0 0 0 0 0 0 0 0 0 0 0 0 0 0 0 0 0 0 0 0
3 3 6 3 3 3 3 3 0 0 0 0 0 0 0 0 0 0 0 0 0 0 0 0 0 0 0 0 0 0 0 0 0 0 0 0 0 0 0 0 0 0 0
0 0 0 0 3 3 3 3 3 0 0 0 0 0 0 0 0 0 0 0 0 0 0 0 0 0 0 0 0 0 0 0 0 0 0 0 0 0 0 0 0 0 0
0 0 0 0 0 0 3 3 3 3 3 0 0 0 0 0 0 0 0 0 0 0 0 0 0 0 0 0 0 0 0 0 0 0 0 0 0 0 0 0 0 0 0
0 0 0 0 0 0 0 0 0 0 0 0 0 0 0 0 0 0 0 0 0 0 0 0 0 0 0 0 0 0 0 0 0 0 0 0 0 0 0 0 0 0 0
0 0 0 0 0 0 0 0 0 0 0 0 0 0 0 0 0 0 0 0 0 0 0 0 0 0 0 0 0 0 0 0 0 0 0 0 0 0 0 0 0 0 0
0 0 0 0 0 0 0 0 0 0 0 0 0 0 0 0 0 0 0 0 0 0 0 0 0 0 0 0 0 0 0 0 0 0 0 0 0 0 0 0 0 0 0
0 0 0 0 0 0 0 0 0 0 0 0 0 0 0 0 0 0 0 0 0 0 0 0 0 0 0 0 0 0 0 0 0 0 0 0 0 0 0 0 0 0 0
0 0 0 0 0 0 0 0 0 0 0 0 0 0 0 0 0 0 0 0 0 0 0 0 0 0 0 0 0 0 0 0 0 0 0 0 0 0 0 0 0 0 0
0 0 0 0 0 0 0 0 0 0 0 0 0 0 0 0 0 0 0 0 0 0 0 0 0 0 0 0 0 0 0 0 0 0 0 0 0 0 0 0 0 0 0
0 0 0 0 0 0 0 0 0 0 0 0 0 0 0 0 0 0 0 0 0 0 0 0 0 0 0 0 0 0 0 0 0 0 0 0 0 0 0 0 0 0 0
0 0 0 0 0 0 0 0 0 0 0 0 0 0 0 0 0 0 0 0 0 0 0 0 0 0 0 0 0 0 0 0 0 0 0 0 0 0 0 0 0 0 0
Height
5873 5875 5877 5878 5880 5881 5882 5883 5883 5884 5884 5884 5885 5885 5885 5885 5885 5885 5885 5885 5885 5884 5884 5884 5884 5883 5883 5882 5882 5881 5881 5880 5879 5878 5877 5876 5875 5874 5873 5872 5871 5870 5869
5871 5873 5875 5877 5878 5880 5881 5882 5883 5883 5884 5884 5885 5885 5885 5885 5885 5885 5885 5885 5885 5885 5885 5885 5884 5884 5883 5883 5882 5881 5881 5880 5879 5878 5877 5876 5875 5874 5872 5871 5870 5868 5867
5868 5871 5873 5875 5877 5878 5880 5881 5882 5883 5883 5884 5885 5885 5885 5886 5886 5886 5886 5886 5886 5885 5885 5885 5884 5884 5883 5883 5882 5881 5880 5880 5879 5878 5877 5875 5874 5872 5871 5869 5868 5866 5864
5866 5868 5870 5873 5874 5876 5878 5879 5881 5882 5883 5883 5884 5885 5885 5885 5886 5886 5886 5886 5885 5885 5885 5885 5884 5883 5883 5882 5881 5880 5880 5879 5877 5876 5875 5874 5872 5870 5868 5867 5865 5863 5861
5863 5865 5868 5870 5872 5874 5876 5877 5879 5880 5881 5882 5883 5883 5884 5884 5885 5885 5885 5885 5885 5884 5884 5884 5883 5883 5882 5881 5880 5879 5878 5877 5876 5874 5873 5871 5869 5868 5866 5864 5861 5859 5857
5860 5862 5864 5866 5868 5871 5873 5875 5876 5878 5879 5880 5881 5882 5883 5883 5883 5884 5884 5884 5883 5883 5883 5882 5882 5881 5880 5879 5878 5877 5876 5875 5873 5872 5870 5868 5866 5864 5862 5860 5857 5855 5852
5856 5858 5860 5862 5865 5867 5869 5871 5873 5875 5877 5878 5879 5880 5881 5881 5881 5882 5882 5882 5882 5881 5881 5881 5880 5879 5878 5877 5876 5875 5873 5872 5870 5869 5867 5864 5862 5860 5858 5855 5853 5850 5847
5852 5854 5857 5859 5861 5863 5866 5868 5870 5872 5874 5875 5876 5877 5878 5879 5879 5879 5879 5879 5879 5879 5878 5878 5877 5877 5876 5874 5873 5872 5870 5869 5867 5865 5863 5860 5858 5856 5853 5850 5847 5844 5841
5848 5851 5853 5855 5858 5860 5862 5865 5867 5869 5870 5871 5873 5874 5875 5876 5876 5877 5877 5877 5877 5876 5876 5875 5875 5874 5873 5871 5870 5869 5867 5865 5863 5861 5858 5856 5853 5850 5848 5845 5842 5839 5835
5844 5846 5849 5851 5854 5856 5859 5861 5863 5865 5866 5868 5869 5870 5871 5872 5873 5873 5873 5873 5873 5873 5872 5872 5871 5870 5869 5867 5866 5865 5863 5860 5858 5856 5853 5850 5848 5844 5841 5838 5835 5832 5828
5840 5842 5844 5847 5849 5852 5854 5857 5859 5861 5862 5864 5865 5866 5867 5868 5869 5869 5869 5869 5869 5869 5868 5868 5866 5865 5864 5863 5861 5859 5857 5855 5853 5850 5848 5845 5842 5838 5835 5831 5827 5824 5820
5835 5838 5840 5843 5845 5848 5850 5852 5854 5856 5858 5860 5861 5862 5863 5863 5864 5864 5865 5865 5864 5864 5864 5863 5861 5860 5859 5857 5856 5854 5851 5849 5847 5844 5841 5838 5835 5832 5828 5824 5820 5816 5812
5831 5833 5836 5838 5841 5843 5845 5848 5850 5852 5853 5855 5856 5857 5858 5859 5859 5859 5859 5859 5859 5859 5858 5857 5856 5855 5853 5851 5849 5847 5845 5843 5840 5837 5834 5831 5828 5824 5820 5816 5812 5808 5804
5827 5829 5831 5834 5836 5839 5841 5843 5845 5847 5848 5850 5851 5852 5853 5854 5854 5854 5854 5854 5853 5853 5852 5851 5850 5848 5847 5845 5843 5841 5838 5835 5833 5830 5827 5823 5819 5816 5811 5807 5803 5799 5795
5822 5824 5827 5829 5831 5834 5835 5837 5839 5841 5842 5844 5845 5846 5847 5848 5848 5848 5848 5848 5847 5847 5846 5845 5843 5842 5840 5838 5836 5833 5830 5828 5824 5821 5818 5814 5810 5806 5802 5798 5794 5790 5785
5817 5820 5822 5824 5826 5828 5830 5832 5833 5835 5836 5838 5839 5840 5841 5841 5841 5842 5841 5841 5840 5839 5838 5837 5836 5834 5832 5830 5827 5825 5822 5819 5816 5812 5809 5805 5801 5797 5793 5788 5784 5779 5774
5813 5815 5817 5819 5821 5823 5824 5826 5828 5829 5830 5831 5832 5833 5834 5834 5834 5834 5834 5833 5833 5832 5831 5829 5827 5825 5823 5821 5818 5816 5813 5810 5806 5803 5799 5795 5791 5786 5782 5778 5773 5768 5763
5808 5810 5812 5813 5815 5817 5819 5820 5822 5823 5824 5825 5825 5826 5826 5827 5827 5826 5826 5825 5825 5823 5822 5820 5818 5816 5814 5812 5809 5806 5803 5800 5796 5792 5788 5784 5780 5775 5771 5766 5761 5756 5751
5803 5805 5806 5808 5810 5811 5813 5814 5815 5816 5817 5818 5818 5818 5819 5819 5819 5818 5818 5817 5816 5814 5813 5811 5809 5807 5804 5802 5799 5796 5793 5789 5786 5782 5777 5773 5769 5764 5759 5754 5749 5744 5738
5797 5799 5801 5802 5804 5805 5806 5807 5808 5809 5810 5810 5811 5811 5811 5810 5810 5810 5809 5808 5807 5805 5803 5802 5799 5797 5794 5791 5788 5785 5782 5778 5774 5770 5766 5761 5757 5752 5747 5742 5736 5731 5725
5792 5793 5795 5796 5797 5798 5799 5800 5801 5802 5802 5802 5802 5802 5802 5802 5801 5801 5800 5799 5797 5795 5794 5791 5789 5787 5784 5781 5777 5774 5770 5766 5762 5758 5753 5749 5744 5739 5733 5728 5723 5717 5711
5786 5787 5788 5789 5790 5791 5792 5793 5793 5794 5794 5794 5794 5794 5793 5793 5792 5791 5790 5789 5787 5785 5783 5781 5778 5775 5772 5769 5766 5762 5758 5754 5749 5745 5740 5735 5730 5725 5719 5714 5708 5702 5696
5779 5780 5781 5782 5783 5784 5784 5785 5785 5786 5785 5785 5785 5785 5784 5784 5783 5781 5780 5778 5776 5774 5772 5769 5766 5763 5760 5756 5753 5749 5745 5740 5736 5731 5726 5721 5716 5710 5705 5699 5693 5686 5680
5772 5773 5774 5774 5775 5776 5776 5776 5777 5777 5777 5776 5776 5775 5775 5774 5773 5771 5769 5767 5765 5763 5760 5757 5754 5751 5747 5743 5739 5735 5731 5726 5721 5716 5711 5706 5700 5695 5689 5683 5677 5670 5664
5763 5764 5765 5766 5766 5767 5767 5767 5768 5767 5767 5767 5766 5766 5764 5763 5762 5760 5758 5756 5753 5751 5748 5745 5742 5738 5734 5730 5726 5721 5716 5711 5706 5701 5696 5690 5685 5679 5673 5667 5661 5654 5648
5754 5755 5756 5757 5757 5758 5758 5758 5758 5758 5757 5757 5756 5755 5753 5752 5750 5748 5746 5744 5741 5739 5736 5732 5729 5725 5721 5716 5712 5707 5702 5697 5691 5686 5680 5675 5669 5663 5657 5651 5645 5638 5632
Wind_Speed
12 11 10 8 7 6 5 3 2 1 1 1 0 1 1 2 2 2 3 3 3 4 4 4 4 4 5 6 6 6 6 6 7 7 7 8 8 9 9 9 10 11 11
13 12 11 10 9 8 7 6 4 3 2 1 1 1 1 1 1 2 2 2 3 3 3 4 4 5 5 5 6 6 7 7 8 8 8 9 10 10 10 11 11 12 12
15 13 12 12 11 10 8 7 6 5 4 3 3 2 1 1 1 2 2 2 2 3 3 4 5 5 5 6 6 7 7 8 8 9 9 10 11 11 12 13 14 14 14
16 14 13 12 12 11 10 9 8 7 6 5 4 4 3 2 3 3 3 3 3 4 4 5 5 5 6 7 7 8 9 9 10 10 11 12 12 13 14 15 15 16 16
17 16 15 14 14 13 12 11 10 9 8 7 6 6 5 5 5 5 5 5 5 6 6 6 6 7 7 8 9 10 11 11 12 12 13 14 14 15 16 16 17 18 19
18 18 16 16 15 15 14 13 12 11 10 9 8 7 7 6 6 6 6 7 7 7 7 8 8 8 9 10 11 12 12 13 13 14 15 16 16 17 18 19 19 21 22
19 19 18 17 16 16 16 15 14 13 12 11 10 9 9 8 8 8 8 9 8 9 9 9 9 10 11 12 13 13 14 15 15 16 17 17 18 19 20 21 22 23 24
20 20 19 18 17 17 17 16 15 14 14 13 12 11 10 10 10 10 10 10 10 10 10 10 11 12 13 13 14 15 16 16 17 18 19 20 21 21 23 23 24 25 26
20 20 20 19 18 18 17 17 16 16 15 15 15 13 12 12 11 11 12 12 12 12 12 13 13 14 15 15 16 17 18 19 20 21 22 22 23 24 25 25 26 27 28
20 20 19 19 19 18 18 18 17 16 16 15 15 15 14 14 14 14 14 14 14 14 15 15 16 16 17 17 18 19 20 21 22 23 23 24 25 26 27 28 29 30 30
19 19 19 19 19 19 19 19 18 17 17 16 15 15 15 15 15 15 15 16 16 16 17 17 18 18 18 19 20 21 22 23 23 24 25 26 27 28 30 30 31 32 33
20 20 19 19 19 19 19 19 19 19 18 17 17 16 17 17 17 17 17 18 18 18 18 19 19 20 20 21 22 23 24 24 25 26 27 28 29 30 31 32 33 34 34
19 19 20 19 19 19 20 19 19 20 19 20 19 19 19 19 19 19 19 20 20 20 20 20 21 21 22 23 24 25 26 27 27 28 29 30 31 32 33 34 34 35 36
19 19 20 20 20 20 20 19 20 20 21 21 21 21 21 21 21 21 21 21 22 22 22 23 23 24 25 26 27 27 28 29 30 30 31 32 33 34 35 36 36 37 38
20 19 18 20 21 21 21 20 20 21 21 21 22 22 22 23 23 23 23 24 24 24 25 25 26 26 27 28 29 29 30 31 32 33 34 35 35 36 37 38 38 39 40
20 20 19 20 20 21 21 21 21 21 22 22 23 23 24 24 24 24 25 26 26 26 27 27 28 29 30 30 31 31 32 33 34 35 36 37 37 38 39 40 41 41 42
20 20 20 20 20 20 21 21 21 22 23 23 24 25 25 26 26 26 27 27 28 28 29 30 31 31 32 32 33 34 34 35 36 37 38 39 40 40 41 42 43 44 45
21 21 21 21 22 22 22 22 22 23 23 24 26 26 27 27 27 28 28 29 30 30 31 32 33 33 34 34 34 35 36 37 38 39 40 41 41 42 43 44 45 46 47
21 22 22 22 22 23 24 24 24 25 25 26 27 27 28 28 28 28 29 30 31 32 32 33 34 34 35 35 36 37 38 38 39 40 41 42 43 44 45 46 47 49 49
21 22 23 23 24 25 25 25 25 26 26 26 27 28 28 29 29 30 31 32 33 33 34 35 35 36 36 37 38 39 40 41 41 42 43 44 45 46 47 48 50 50 51
22 22 23 23 23 24 24 24 25 26 26 27 27 28 28 29 30 32 33 33 34 36 36 36 37 37 38 39 40 41 42 43 44 45 46 47 47 48 50 51 52 52 53
23 24 24 24 24 24 25 26 26 27 27 28 28 29 30 31 32 33 34 35 36 37 38 38 39 39 40 41 42 43 44 45 46 47 48 49 50 51 52 53 53 54 55
25 25 26 26 26 26 27 28 29 29 29 29 30 31 31 32 33 34 35 36 36 37 38 39 40 41 42 43 44 45 46 47 49 50 50 51 52 53 54 54 55 56 56
27 27 27 27 28 28 29 29 30 30 31 31 31 32 32 33 34 35 36 37 38 39 39 40 41 42 43 45 46 47 48 49 50 51 52 53 53 54 55 55 56 56 57
28 29 29 29 29 29 30 30 31 32 32 32 33 33 34 35 36 37 38 39 39 40 41 42 43 44 45 46 48 49 50 51 52 52 53 53 54 55 56 56 57 57 58
29 30 30 30 31 31 31 32 32 33 33 33 34 35 36 37 38 39 40 41 41 42 43 44 45 46 47 48 49 50 51 52 53 53 53 54 55 55 56 56 57 57 57
Wind_Direction
217 216 219 221 223 221 221 219 215 218 222 205 165 47 39 38 36 39 42 42 41 40 38 35 34 33 25 19 16 11 6 3 2 -0 360 357 354 351 349 346 344 344 336
218 217 222 225 225 226 229 229 226 226 226 218 224 255 296 346 359 7 12 15 17 23 23 20 20 13 8 9 9 5 1 358 357 354 351 349 348 346 342 338 334 333 330
220 220 223 226 228 230 231 230 230 231 231 233 242 251 265 291 320 324 336 353 6 1 357 358 355 356 358 360 356 353 350 346 344 341 339 338 336 334 332 330 328 326 322
223 223 225 228 230 232 233 231 231 234 237 239 245 251 261 277 291 295 299 319 335 338 336 337 339 343 346 345 342 339 336 334 333 331 330 329 328 327 326 326 324 322 320
227 228 230 232 233 235 234 234 234 237 241 243 246 250 257 268 278 283 288 294 307 315 321 326 327 328 329 330 330 330 328 326 325 324 323 323 322 321 321 321 319 319 317
230 233 234 235 236 237 234 235 237 239 241 242 245 249 255 263 273 280 286 287 296 302 307 311 314 316 317 319 321 321 320 319 319 319 319 319 317 317 317 318 316 315 315
232 234 236 236 236 234 234 236 238 240 242 242 246 249 255 260 268 276 282 286 291 293 296 300 303 308 310 312 313 315 316 317 316 316 317 317 316 316 316 316 315 314 314
233 235 235 234 233 233 234 236 239 241 241 243 247 249 255 261 267 274 279 283 289 293 294 296 299 302 304 307 310 312 314 316 316 315 314 314 313 313 313 313 314 313 313
234 235 235 234 234 237 237 237 240 241 243 245 249 251 254 260 267 274 278 283 286 289 290 292 296 298 300 302 304 307 309 310 311 312 312 312 312 311 312 312 313 313 313
235 234 234 235 234 236 237 237 239 241 242 244 248 251 256 260 265 270 275 280 283 285 288 290 292 294 296 299 302 304 305 307 308 309 309 310 310 310 312 312 312 312 312
232 232 234 234 234 237 238 239 238 240 244 246 248 252 256 259 263 268 274 278 281 284 287 289 291 294 296 298 300 302 303 305 307 308 308 308 308 309 310 311 311 312 312
233 232 232 232 234 237 238 241 240 241 244 247 252 255 258 261 265 270 274 277 280 283 286 289 292 294 296 298 300 301 302 303 305 306 307 307 308 308 309 310 309 310 310
235 231 232 233 235 238 240 242 243 244 247 251 253 256 259 262 266 271 274 276 278 282 285 287 290 292 295 298 300 301 302 303 304 305 306 306 307 307 307 308 308 308 309
234 233 235 236 238 240 241 245 247 247 250 252 255 258 260 263 267 271 274 276 279 282 284 286 288 291 293 296 298 300 301 302 303 304 304 305 306 306 306 307 307 307 308
235 235 238 240 242 244 245 247 250 251 252 253 257 260 262 265 268 272 274 277 279 282 283 285 288 290 293 295 297 299 300 301 301 302 303 304 304 305 306 306 307 307 307
240 239 240 244 244 245 246 248 251 252 253 256 258 262 264 267 270 272 274 276 278 281 283 285 288 291 292 294 295 297 298 299 300 301 302 303 304 304 305 306 307 307 306
241 240 242 245 247 249 249 250 252 255 257 259 261 263 265 267 269 271 273 276 279 282 284 286 289 291 292 293 294 296 297 299 300 301 302 303 304 304 305 305 306 307 307
242 242 245 248 251 252 254 255 257 258 260 262 264 265 267 269 271 272 274 277 280 282 283 286 289 291 292 293 294 296 297 299 300 301 302 303 303 304 304 305 305 306 307
244 246 248 250 253 255 257 259 261 261 262 263 265 266 268 270 272 274 276 278 280 282 285 287 290 291 293 294 295 296 298 299 300 301 302 303 303 303 304 305 305 306 306
249 248 249 252 255 257 258 260 262 264 265 266 268 270 271 273 274 276 277 279 281 283 285 287 290 292 293 294 295 296 298 299 300 301 302 302 302 303 304 305 305 306 306
251 252 255 257 258 259 260 262 264 266 267 268 269 271 273 275 276 277 279 281 283 284 286 287 288 290 291 293 294 295 297 298 299 300 301 301 302 303 303 304 305 305 305
252 254 257 259 261 263 264 266 267 268 269 271 271 273 275 277 278 279 280 281 283 285 286 288 289 290 291 293 294 295 297 298 299 300 300 301 301 302 303 304 304 304 304
255 257 259 260 261 264 266 267 268 269 271 272 273 275 276 278 279 280 281 283 284 286 287 288 290 291 293 294 295 296 297 298 299 299 300 300 301 302 303 303 303 303 303
258 259 261 263 264 266 268 269 270 271 272 273 274 276 277 279 280 282 284 285 286 287 288 289 291 292 294 295 296 297 298 299 299 300 300 300 301 302 302 303 303 303 303
259 260 262 265 265 266 268 269 271 273 275 275 276 278 279 280 281 282 284 285 286 287 289 291 292 293 295 296 297 298 298 299 300 300 301 301 301 302 303 303 304 303 303
261 263 264 265 266 267 269 270 272 274 275 277 278 279 281 282 282 283 284 285 286 287 289 290 292 294 295 296 297 298 299 299 300 300 301 301 302 302 303 304 304 304 304